Probability
0 0 0 0 0 0 0 0 0 0 0 0 0 0 0 0 0 0 0 0 0 0 1 3 7 9 8 8 8 7 7 10 12 10 7 4 1 1 3 4 3 2 2 3 3 2 1 0 0
0 0 0 0 0 0 0 0 0 0 0 0 0 0 0 0 0 0 0 0 0 0 0 2 4 7 8 9 9 8 7 9 9 7 4 2 1 1 2 3 3 3 4 5 7 6 3 2 2
0 0 0 0 0 0 0 0 0 0 0 0 0 0 0 0 0 0 0 0 0 0 1 1 3 4 7 9 9 8 7 7 7 5 3 1 1 1 2 2 2 3 5 6 8 9 7 6 6
0 0 0 0 0 0 0 0 0 0 0 0 0 0 0 0 0 0 0 0 0 1 2 2 2 3 5 8 10 9 8 7 6 6 4 2 2 3 3 2 2 3 4 5 7 8 9 8 8
0 0 0 0 0 0 0 0 0 0 0 0 0 0 0 0 0 0 0 0 0 1 2 3 2 1 4 7 9 9 9 8 7 6 5 4 3 4 3 3 3 4 4 5 7 8 8 7 7
0 0 0 0 0 0 0 0 0 0 0 0 0 0 0 0 0 0 0 0 0 0 2 3 3 1 3 6 8 9 9 9 8 7 6 5 4 3 2 2 3 3 4 5 7 9 8 7 5
0 0 0 0 0 0 0 0 0 0 0 0 0 0 0 0 0 0 0 0 0 0 1 3 3 3 3 4 5 6 8 9 9 9 7 5 4 3 1 1 1 2 3 3 5 8 10 9 7
0 0 0 0 0 0 0 0 0 0 0 0 0 0 0 0 0 0 0 0 0 0 0 1 3 2 2 2 2 2 4 6 8 8 8 6 3 2 1 0 0 1 1 1 2 4 7 8 8
0 0 0 0 0 0 0 0 0 0 0 0 0 0 0 0 0 0 0 0 0 0 0 0 1 1 0 0 0 1 2 3 5 6 7 5 2 1 1 0 0 0 0 0 0 1 2 4 4
0 0 0 0 0 0 0 0 0 0 0 0 0 0 0 0 0 0 0 0 0 0 0 0 0 0 0 0 0 1 2 1 2 4 5 3 1 0 0 0 0 0 0 0 0 0 0 0 0
0 0 0 0 0 0 0 0 0 0 0 0 0 0 0 0 0 0 0 0 0 0 0 0 0 0 0 0 0 1 2 2 2 3 3 2 0 0 0 0 0 0 0 0 0 0 0 0 0
0 0 0 0 0 0 0 0 0 0 0 0 0 0 0 0 0 0 0 0 0 0 0 0 0 0 0 0 0 0 1 2 2 2 3 2 1 0 0 0 0 0 0 0 0 0 0 0 0
0 0 0 0 0 0 0 0 0 0 0 0 0 0 0 0 0 0 0 0 0 0 0 0 0 0 0 0 0 0 0 1 1 2 3 3 2 1 0 0 0 0 0 0 0 0 0 0 0
0 0 0 0 0 0 0 0 0 0 0 0 0 0 0 0 0 0 0 0 0 0 0 0 0 0 0 0 0 0 0 0 1 2 3 3 3 1 0 0 0 0 0 0 0 0 1 1 0
0 0 0 0 0 0 0 0 0 0 0 0 0 0 0 0 0 0 0 0 0 0 0 0 0 0 0 0 0 0 0 0 0 1 3 3 3 2 1 0 0 0 0 0 0 0 1 2 1
0 0 0 0 0 0 0 0 0 0 0 0 0 0 0 0 0 0 0 0 0 0 0 0 0 0 0 0 0 0 0 0 0 1 2 3 3 3 1 0 0 0 0 0 0 0 1 2 1
0 0 0 0 0 0 0 0 0 0 0 0 0 0 0 0 0 0 0 0 0 0 0 0 0 0 0 0 0 0 0 0 0 0 1 3 4 3 2 1 0 0 0 0 0 0 1 1 1
0 0 0 0 0 0 0 0 0 0 0 0 0 0 0 0 0 0 0 0 0 0 0 0 0 0 0 0 0 0 0 0 0 0 1 3 4 4 3 1 0 0 0 0 0 0 0 0 0
0 0 0 0 0 0 0 0 0 0 0 0 0 0 0 0 0 0 0 0 0 0 0 0 0 0 0 0 0 0 0 0 0 0 1 2 4 4 3 2 1 0 0 0 0 0 0 0 0
0 0 0 0 0 0 0 0 0 0 0 0 0 0 0 0 0 0 0 0 0 0 0 0 0 0 0 0 0 0 0 0 0 0 0 1 3 4 4 2 1 0 0 0 0 0 0 0 0
0 0 0 0 0 0 0 0 0 0 0 0 0 0 0 0 0 0 0 0 0 0 0 0 0 0 0 0 0 0 0 0 0 0 0 1 3 4 4 2 1 0 0 0 0 0 0 0 0
0 0 0 0 0 0 0 0 0 0 0 0 0 0 0 0 0 0 0 0 0 0 0 0 0 0 0 0 0 0 0 0 0 0 0 1 2 3 3 2 0 0 0 0 0 0 0 0 0
0 0 0 0 0 0 0 0 0 0 0 0 0 0 0 0 0 0 0 0 0 0 0 0 0 0 0 0 0 0 0 0 0 0 0 0 1 3 3 2 1 0 0 0 0 0 0 0 0
0 0 0 0 0 0 0 0 0 0 0 0 0 0 0 0 0 0 0 0 0 0 0 0 0 0 0 0 0 0 0 0 0 0 0 0 1 2 3 3 1 0 0 0 0 0 0 0 0
0 0 0 0 0 0 0 0 0 0 0 0 0 0 0 0 0 0 0 0 0 0 0 0 0 0 0 0 0 0 0 0 0 0 0 0 1 2 3 3 2 1 0 0 0 0 0 0 0
0 0 0 0 0 0 0 0 0 0 0 0 0 0 0 0 0 0 0 0 0 0 0 0 0 0 0 0 0 0 0 0 0 0 0 0 1 2 3 3 2 1 0 0 0 0 0 0 0
0 0 0 0 0 0 0 0 0 0 0 0 0 0 0 0 0 0 0 0 0 0 0 0 0 0 0 0 0 0 0 0 0 0 0 0 0 1 2 3 2 1 0 0 0 0 0 0 0
0 0 0 0 0 0 0 0 0 0 0 0 0 0 0 0 0 0 0 0 0 0 0 0 0 0 0 0 0 0 0 0 0 0 0 0 0 0 1 1 1 1 0 0 0 0 0 0 0
0 0 0 0 0 0 0 0 0 0 0 0 0 0 0 0 0 0 0 0 0 0 0 0 0 0 0 0 0 0 0 0 0 0 0 0 0 0 0 0 0 0 0 0 0 0 0 0 0
0 0 0 0 0 0 0 0 0 0 0 0 0 0 0 0 0 0 0 0 0 0 0 0 0 0 0 0 0 0 0 0 0 0 0 0 0 0 0 0 0 0 0 0 0 0 0 0 0
Wind_Speed
4 2 3 4 6 4 3 4 2 1 1 0 1 4 7 5 4 4 1 1 2 2 1 3 6 7 8 8 8 8 8 8 8 7 7 6 5 5 5 4 3 3 3 3 3 3 3 3 3
1 1 4 5 5 1 5 4 3 3 3 3 3 4 4 2 1 3 1 1 2 2 2 3 7 8 8 8 9 9 8 8 8 8 7 7 6 5 5 4 3 3 2 2 2 3 3 3 3
1 3 5 5 4 5 4 3 4 0 2 2 3 3 3 2 1 2 1 2 3 3 3 4 8 8 8 9 9 9 8 8 8 8 8 7 7 6 6 5 4 3 3 2 2 2 2 2 3
3 4 5 4 3 5 4 2 2 2 2 3 4 3 1 1 1 2 2 4 5 4 3 4 8 8 9 9 9 9 9 9 9 8 8 7 7 7 7 6 6 5 4 3 3 2 2 2 2
4 4 4 0 4 4 3 2 1 2 2 2 4 4 1 3 2 3 4 4 5 4 3 4 8 8 9 9 9 10 9 9 9 9 8 8 8 8 8 8 7 6 6 5 4 3 2 1 1
4 4 4 3 4 3 3 1 2 2 2 2 4 4 1 2 2 3 4 4 4 4 4 5 8 9 9 9 9 10 10 10 10 10 10 9 9 9 9 9 8 7 6 6 5 4 3 2 1
4 4 4 4 2 3 2 1 3 3 3 3 5 5 1 1 1 3 4 4 4 4 5 5 5 6 8 9 9 10 10 10 10 10 10 10 10 9 9 9 8 8 7 7 7 6 4 3 3
4 4 2 3 3 4 1 1 1 3 3 2 5 7 5 4 3 5 5 5 5 4 4 4 4 5 4 5 8 9 9 10 10 10 10 10 10 9 9 8 9 8 8 8 8 7 7 5 4
3 4 3 5 5 3 1 2 1 1 3 1 1 3 3 7 6 6 4 3 3 4 3 3 4 4 4 4 7 7 8 9 9 8 10 8 4 4 5 8 9 9 8 7 7 7 7 6 5
4 4 6 3 3 2 1 2 1 2 2 1 1 1 4 6 6 6 5 4 2 1 1 2 3 3 3 4 4 3 3 4 4 3 4 3 3 4 5 8 9 9 8 7 7 7 7 5 3
4 5 3 2 1 2 2 1 1 4 4 6 6 6 6 6 6 6 5 5 4 2 1 1 2 2 3 2 2 2 2 2 3 3 3 3 3 3 3 2 4 4 6 4 4 4 3 3 2
3 3 2 2 1 1 2 1 1 4 6 3 5 7 7 8 8 8 7 5 4 3 2 1 1 2 2 2 2 2 2 2 2 2 3 2 2 2 2 2 2 2 2 2 2 2 3 3 2
3 2 1 1 1 1 1 2 3 5 5 1 3 6 8 9 7 5 5 5 4 3 3 2 2 2 2 2 1 2 1 1 1 2 2 2 2 2 2 2 2 2 2 2 2 2 2 3 3
3 2 2 2 2 1 3 3 3 8 4 3 5 7 8 9 7 5 4 5 5 5 4 3 3 2 2 2 1 1 1 1 1 1 2 1 1 1 1 1 2 2 2 1 1 2 2 2 2
1 0 3 3 3 2 1 6 8 6 3 5 6 6 7 7 6 7 7 6 6 5 4 4 3 3 2 2 1 1 0 1 1 1 1 1 1 0 0 1 1 2 2 2 2 2 1 2 2
2 1 2 3 3 3 4 9 6 3 5 6 6 5 6 6 6 6 6 6 6 5 4 4 3 3 2 2 1 0 0 0 0 1 1 1 1 0 0 1 1 2 1 1 1 2 2 2 2
1 2 4 4 2 3 5 9 5 1 4 6 6 6 6 5 5 5 6 6 6 6 5 4 3 3 2 2 1 0 0 0 1 1 1 1 1 1 1 1 1 2 1 1 2 2 2 2 3
6 5 4 4 2 3 5 9 9 4 4 6 6 6 6 7 8 6 5 5 5 4 4 4 3 2 2 1 1 0 1 1 1 1 1 2 1 1 1 1 2 1 1 2 2 2 2 2 3
5 5 4 3 1 3 7 11 12 7 5 7 7 6 7 8 6 4 4 4 4 3 4 4 3 2 2 1 1 1 1 2 1 2 2 2 2 2 1 2 2 1 1 2 3 2 2 2 2
3 3 3 3 1 2 5 11 11 8 7 8 8 8 8 6 4 4 4 4 5 5 4 4 4 3 3 2 2 1 1 1 2 2 3 3 3 3 2 2 2 2 2 2 3 2 2 2 1
5 5 4 3 3 2 4 9 6 4 3 4 6 6 7 9 8 6 5 5 5 5 6 5 5 4 3 2 1 0 1 1 1 2 2 3 3 3 3 3 3 3 3 3 4 3 3 3 2
6 5 5 3 0 3 1 6 8 4 5 4 5 5 6 6 6 6 6 6 6 6 5 4 4 4 3 3 2 2 2 3 4 3 3 4 4 4 4 4 4 4 4 4 5 4 4 3 3
4 3 3 2 3 2 1 3 11 3 5 6 5 5 5 5 6 7 7 6 5 4 4 3 3 3 3 3 4 3 3 3 3 3 4 5 4 5 5 5 5 5 5 6 6 5 5 4 5
7 6 6 5 4 4 5 5 10 5 6 5 4 4 4 4 4 4 4 4 3 2 2 2 3 4 3 4 4 4 5 4 4 4 4 4 4 4 5 5 5 6 5 6 6 6 7 6 6
5 6 3 2 1 8 3 5 12 7 5 5 4 4 3 3 4 4 4 3 3 3 3 3 3 4 4 4 4 5 5 5 5 5 5 5 4 4 6 6 6 6 6 7 6 7 7 7 7
6 8 8 8 6 4 2 8 10 5 5 4 3 2 2 3 3 4 4 4 4 4 3 3 4 4 3 4 4 4 4 4 4 5 5 5 5 6 6 6 7 7 7 7 6 6 7 7 7
7 5 5 6 2 2 6 8 11 3 2 1 0 1 2 3 3 3 3 3 3 4 4 4 4 4 4 4 4 4 4 5 5 6 5 5 6 6 7 6 7 7 8 8 7 6 7 7 8
5 8 5 5 6 5 6 5 6 4 3 2 1 1 2 2 2 2 3 3 3 3 3 2 3 4 4 3 4 4 4 5 5 5 6 7 7 7 7 7 7 7 8 8 7 7 7 8 8
5 4 5 5 5 6 4 8 6 5 3 3 3 3 3 3 3 2 2 2 1 1 1 2 2 3 3 3 4 4 4 5 5 5 7 7 7 7 7 8 7 8 8 8 8 8 8 9 9
4 6 7 6 5 4 3 8 3 2 2 2 3 3 2 2 2 1 1 1 1 1 2 2 2 3 4 4 4 4 4 4 5 6 7 7 8 7 8 8 8 8 8 8 8 9 9 9 10
Wind_Direction
3 41 71 59 58 57 229 240 225 224 201 59 80 117 135 139 156 169 195 95 113 114 78 83 87 85 82 78 74 71 69 69 71 73 74 78 84 90 91 92 97 109 113 114 115 112 111 116 120
9 75 58 64 95 148 254 237 215 211 164 132 72 85 93 91 64 110 118 69 96 97 74 78 87 83 81 80 76 71 67 65 66 66 66 67 69 71 73 76 81 93 101 108 113 111 115 121 124
89 59 85 84 137 187 220 217 205 197 125 124 83 59 108 127 133 153 177 124 87 77 66 78 86 82 79 78 78 75 71 66 63 63 63 62 61 60 59 59 61 65 70 77 103 111 128 127 130
87 54 60 90 208 224 228 235 179 135 88 73 105 78 50 39 190 176 116 106 93 76 61 74 85 84 80 77 76 73 71 68 64 61 60 60 58 56 54 52 52 53 56 60 67 82 111 131 146
63 82 84 148 237 248 248 256 189 150 138 99 114 117 57 359 43 94 103 100 99 79 57 67 82 83 80 78 77 74 70 67 63 59 56 56 56 55 51 47 45 46 46 49 50 53 68 85 112
66 78 115 210 240 262 267 247 150 136 128 119 121 124 152 7 85 100 97 95 90 84 62 52 71 77 75 75 74 72 68 64 61 58 54 51 52 52 50 44 42 40 41 42 39 37 37 38 27
112 118 171 197 217 251 248 159 149 145 146 174 148 125 169 294 136 106 90 85 74 70 68 54 50 57 65 70 69 69 68 64 61 57 53 48 47 47 48 43 39 39 37 39 35 30 22 21 19
126 117 159 207 203 234 248 117 129 146 162 140 139 146 190 198 136 96 81 72 67 58 59 57 53 53 52 54 62 64 65 63 60 57 52 47 44 44 42 40 36 37 36 38 36 31 26 21 16
93 91 201 212 198 222 160 121 52 79 114 104 163 178 183 134 122 104 85 62 60 56 46 55 59 55 54 57 56 55 58 56 55 48 48 46 34 31 33 32 34 32 31 33 33 29 25 24 16
105 169 219 216 196 190 155 150 158 114 113 150 81 66 106 126 138 136 139 143 130 101 44 58 70 66 57 55 51 44 49 46 46 44 43 42 35 29 34 28 31 27 24 24 25 25 24 26 9
157 195 222 237 197 162 152 166 167 148 210 209 194 175 148 146 155 160 166 166 171 171 149 89 95 84 78 69 62 49 45 44 39 41 44 46 41 29 28 22 17 14 18 13 8 13 13 11 4
173 229 221 245 181 160 178 176 208 203 221 212 186 164 161 166 178 181 179 180 173 163 174 159 119 101 89 83 73 68 56 48 41 31 39 52 46 29 18 17 0 7 2 359 4 357 354 355 351
199 243 230 257 265 235 205 224 238 244 240 193 141 158 174 181 189 192 181 175 171 177 183 180 155 133 119 92 72 66 60 56 45 34 36 54 61 32 15 3 358 352 358 354 346 346 343 343 340
208 221 282 273 231 234 219 254 232 252 221 187 177 185 191 190 186 178 181 186 189 191 191 184 169 161 138 120 106 89 70 51 41 34 23 43 66 52 17 357 352 345 342 339 328 321 319 318 321
110 41 308 247 203 219 169 275 231 235 170 191 202 203 202 202 194 194 195 193 192 191 187 185 177 161 148 140 135 110 100 76 41 357 1 23 40 56 24 340 330 322 325 330 334 327 330 330 332
79 77 272 271 186 181 161 262 262 206 173 200 208 210 211 215 212 211 204 197 190 182 184 194 178 160 162 158 155 151 127 80 329 314 325 337 354 356 314 305 300 305 317 322 317 317 324 316 314
54 209 233 278 194 167 190 251 275 155 180 212 215 212 213 222 226 218 207 199 191 186 182 184 175 171 173 165 161 185 252 281 277 287 293 304 309 325 334 280 284 307 321 316 309 320 311 303 306
204 207 225 240 231 174 224 257 274 269 221 235 232 222 218 220 225 216 204 196 184 179 175 172 171 173 155 128 96 7 323 294 278 267 265 274 283 296 307 294 290 298 308 308 305 295 303 286 284
162 173 212 243 236 198 241 262 271 270 246 245 239 226 223 228 232 209 200 186 170 172 172 173 170 178 152 146 168 215 260 271 275 263 257 261 261 265 255 272 282 276 268 274 282 283 291 299 302
151 182 231 283 348 227 278 274 267 253 233 226 226 224 221 223 222 204 193 185 183 184 185 185 189 188 190 190 191 199 218 248 254 264 267 257 258 262 262 255 261 266 265 278 278 282 269 277 298
209 198 202 224 348 7 325 298 277 267 240 241 228 219 210 205 206 201 195 197 191 194 195 197 202 201 203 196 157 63 12 328 296 283 273 264 263 262 256 252 252 257 250 255 260 249 239 264 265
226 207 181 177 94 296 14 292 286 278 290 260 244 229 218 210 200 195 192 196 201 205 201 202 203 209 206 186 186 198 219 246 249 254 262 274 265 261 257 252 248 249 246 249 252 248 238 236 254
182 122 133 138 150 306 262 237 280 299 276 263 246 234 228 209 195 193 194 198 203 198 197 203 204 215 211 203 200 207 232 243 261 269 270 271 269 261 256 251 247 249 247 246 248 249 240 231 237
131 84 67 57 79 265 215 192 272 241 228 254 248 235 227 203 195 195 192 186 192 192 196 200 207 225 217 212 213 215 231 249 268 275 273 274 274 269 262 256 250 250 249 247 246 243 239 239 242
131 112 67 358 313 248 193 209 250 248 236 235 245 249 227 191 186 190 189 192 197 199 207 208 211 235 235 225 227 227 232 238 247 259 262 270 276 274 270 266 257 255 251 248 245 243 241 237 239
180 155 163 189 217 262 209 234 254 261 274 265 254 229 198 193 195 199 202 202 207 209 209 211 220 240 242 238 241 241 240 241 249 252 257 259 261 263 265 262 257 257 257 256 246 248 246 243 240
153 189 156 131 134 265 257 276 296 277 283 286 258 145 201 211 210 209 209 210 214 219 222 219 227 246 250 249 254 254 249 248 255 261 260 263 263 267 266 260 260 261 260 259 251 250 250 247 244
151 144 126 142 166 236 274 261 254 268 254 261 249 245 247 226 226 226 225 225 230 234 242 242 237 243 252 252 254 264 259 255 258 264 266 267 269 269 271 267 263 262 262 260 257 256 253 251 250
139 150 144 139 163 172 242 264 228 221 224 224 244 251 240 228 229 233 248 249 246 260 250 251 262 270 276 270 266 269 270 267 267 266 267 268 272 271 269 268 265 265 264 261 258 257 254 254 256
169 167 149 163 208 188 192 265 283 222 253 258 269 276 265 245 239 241 266 309 312 289 286 273 273 278 282 281 278 274 278 280 274 272 274 273 273 272 269 269 268 266 266 262 258 262 259 255 257